Regional Weather Roundup
Issued by NWS

Home | Current Version | Previous Version | Graphics & Text | Print | Product List | Glossary On
Versions: 1 2 3 4 5 6 7 8 9 10 11 12 13 14 15 16 17 18 19 20 21 22 23 24 25 26 27 28 29 30 31 32 33 34 35 36 37 38 39 40 41 42 43 44 45 46 47 48 49 50
000
ASUS43 KFSD 210810
RWRSD

WEATHER ROUNDUP FOR SOUTH DAKOTA
NATIONAL WEATHER SERVICE SIOUX FALLS SD
300 AM CDT MON APR 21 2014

NOTE: "FAIR" INDICATES FEW OR NO CLOUDS BELOW 12,000 FEET WITH NO
SIGNIFICANT WEATHER AND/OR OBSTRUCTIONS TO VISIBILITY.


SDZ001>005-009-010-012>017-210900-
NORTHWEST AND NORTH CENTRAL SOUTH DAKOTA

CITY           SKY/WX    TMP DP  RH WIND       PRES   REMARKS
BUFFALO          N/A     42  20  41 W7        30.10R
FAITH            N/A     41  25  53 NW9       30.12S
MOBRIDGE       CLEAR     42  26  53 NW6       30.05R
$$

SDZ012>016-024>037-041>051-057-063-072>074-210900-
SOUTHWEST AND SOUTH CENTRAL SOUTH DAKOTA

CITY           SKY/WX    TMP DP  RH WIND       PRES   REMARKS
RAPID CTY ARPT CLEAR     40  23  50 NW9       30.17R
PIERRE         CLEAR     43  27  53 NW10      30.06R
CUSTER         CLEAR     41  14  33 N5        30.22R
ELLSWORTH AFB  CLEAR     49  20  31 NW10      30.17R
PHILIP         CLEAR     40  26  57 W7        30.13R
PINE RIDGE     CLEAR     39  28  64 CALM      30.17R
SPEARFISH      FAIR      36  23  60 SW6       30.20S
WINNER         FAIR      50  30  46 NW8       30.08R
$$

SDZ004>011-016>023-039-040-210900-
NORTHEAST SOUTH DAKOTA

CITY           SKY/WX    TMP DP  RH WIND       PRES   REMARKS
ABERDEEN       PTCLDY    48  31  51 NW8       30.02R
WATERTOWN      CLOUDY    53  36  52 N15       29.97R
SISSETON         N/A     48  35  60 N9        29.97R
$$

SDZ017-020-022-023-036>040-048>070-210900-
SOUTHEAST SOUTH DAKOTA

CITY           SKY/WX    TMP DP  RH WIND       PRES   REMARKS
SIOUX FALLS    CLOUDY    55  48  77 E7        29.88F
HURON          PTCLDY    51  35  54 N12       29.99R
CHAMBERLAIN      N/A     56  31  38 N14       30.05R
MITCHELL       MOCLDY    57  39  51 N17       29.97R
YANKTON        CLOUDY    61  52  72 N6        29.92R
$$

ABBREVIATIONS USED IN REMARKS
   TC - TEMPERATURE IN CELSIUS
  WCI - WIND CHILL INDEX
   HX - HEAT INDEX
  VSB - VISIBILITY




USA.gov is the U.S. government's official web portal to all federal, state and local government web resources and services.